GFSWCAN_250_rhum_090.txt.gz
RH
27 26 24 23 22 22 22 22 19 18 21 34 25 17 17 16 16 14 10 9 8 11 10 10 11 12 13 14 15 16 19 23 21 19 18 22 28 27 30 26 34 38 44 48 80 82 100 98 78 77 99 100 100 100
28 26 23 22 22 21 23 22 19 18 22 34 24 16 18 16 16 17 14 10 10 10 10 10 10 10 9 10 12 13 16 17 17 15 16 18 24 28 34 28 27 35 46 47 61 91 100 100 81 74 84 100 100 100
28 26 24 22 22 20 23 20 17 16 24 28 20 16 17 19 18 15 18 14 10 11 9 11 12 13 12 12 12 12 13 14 13 12 14 15 20 28 32 29 26 26 26 38 41 91 100 100 100 89 70 96 100 98
24 24 23 22 21 21 21 18 16 16 22 20 14 14 16 16 17 18 15 18 14 12 11 12 13 13 14 13 12 11 11 11 11 12 14 15 18 22 25 24 23 26 25 25 34 45 99 100 100 100 96 70 83 99
21 22 22 21 19 20 18 15 14 16 16 13 14 14 15 15 17 20 20 17 17 16 14 16 11 11 11 10 10 11 10 11 13 14 13 12 14 17 18 18 22 24 24 23 28 39 71 100 100 100 100 100 95 68
18 20 20 19 18 17 14 13 14 12 13 14 13 13 14 14 14 27 26 19 13 19 21 13 11 11 11 10 10 10 9 10 11 10 10 10 11 13 15 16 19 22 25 26 27 35 42 78 100 100 100 80 89 96
17 18 19 17 16 13 12 12 11 12 11 9 8 8 10 10 14 21 16 9 18 21 18 12 12 11 12 12 12 11 11 10 10 9 10 10 10 10 9 13 17 20 22 24 25 25 25 30 43 68 68 57 56 65
15 17 17 15 13 12 11 10 9 7 7 6 7 6 7 8 10 9 10 19 23 16 13 12 12 12 12 12 12 10 12 12 11 10 9 9 9 10 13 15 16 17 20 19 22 25 25 23 23 28 63 77 62 61
15 16 15 13 13 11 10 8 6 6 5 6 6 7 8 8 7 8 13 17 15 14 14 14 13 14 12 13 14 12 13 12 10 10 10 10 11 11 11 13 15 16 18 19 21 26 32 31 28 28 29 51 87 90
15 14 14 14 12 11 8 6 5 5 5 6 6 7 8 9 10 10 11 14 18 16 14 14 13 13 14 12 12 12 12 11 11 11 11 11 12 12 12 13 15 17 18 18 18 20 24 29 31 30 30 29 29 30
14 14 15 12 13 8 7 6 6 6 6 7 8 8 7 6 8 11 18 22 16 16 17 17 17 15 13 13 13 13 12 12 12 12 12 12 12 11 10 11 12 13 16 17 18 19 20 22 25 28 31 31 29 27
14 15 12 14 9 8 8 7 8 8 8 8 9 9 8 11 17 20 18 15 16 16 17 16 16 16 18 17 16 15 14 13 13 14 14 13 13 13 13 15 16 16 17 18 19 20 20 20 21 22 22 22 23 24
14 12 14 9 9 10 8 9 11 12 12 10 9 12 19 22 20 15 17 17 16 17 17 18 20 22 23 23 21 20 19 20 20 19 18 18 21 22 22 22 22 21 21 21 20 20 20 20 20 21 21 20 20 20
11 14 9 9 10 9 9 12 13 13 12 13 16 18 20 17 15 16 17 20 22 22 24 27 28 28 23 24 24 28 27 25 23 28 30 30 28 24 22 22 22 22 21 20 20 20 20 20 20 20 20 20 20 20
12 9 9 9 10 10 13 15 16 20 20 18 21 21 24 24 24 24 32 31 28 27 25 27 29 29 35 38 39 37 34 36 31 33 39 39 38 37 32 30 32 31 29 26 24 22 19 18 17 16 16 16 16 16
9 8 9 10 10 14 17 18 23 26 27 27 23 24 24 24 26 30 30 32 30 35 38 44 52 59 58 57 61 60 60 59 54 51 50 47 42 38 38 34 30 27 26 25 22 21 20 18 17 16 13 12 11 10
7 8 9 10 10 18 24 29 38 34 32 34 30 30 29 31 38 40 40 42 52 60 59 54 50 39 39 35 33 45 40 42 41 36 32 30 31 27 26 24 24 23 22 21 20 18 16 16 15 14 12 11 10 10
7 7 9 11 13 17 29 43 57 51 50 46 46 46 46 44 48 59 58 56 45 38 38 43 53 62 51 49 57 57 69 85 92 90 90 86 79 75 71 69 65 58 53 46 38 31 26 21 18 15 13 11 10 10
6 7 9 12 18 21 25 51 60 61 60 51 44 42 50 50 50 41 33 35 44 50 55 60 63 67 69 76 86 88 84 84 85 84 79 72 65 61 57 51 48 44 38 32 28 24 20 17 14 12 11 10 9 8
6 7 8 12 19 24 29 37 45 43 42 40 41 44 42 34 38 47 62 71 71 71 76 80 90 96 88 89 90 84 80 77 75 72 66 61 54 44 39 35 29 24 20 15 12 10 9 7 6 6 6 5 4 4
6 7 8 11 15 19 21 26 27 26 34 40 34 31 41 54 61 64 73 88 88 89 91 87 85 97 88 89 88 87 80 79 81 81 65 49 31 26 22 18 15 12 10 8 8 7 6 5 5 5 5 4 4 3
6 7 8 9 12 15 20 26 30 34 31 34 44 54 57 66 73 81 92 92 89 97 97 93 94 91 89 84 80 72 69 86 83 70 49 34 29 19 16 13 10 9 8 7 5 5 4 4 3 3 3 3 3 3
7 8 9 11 14 17 22 22 26 31 47 55 62 67 76 83 89 99 94 95 92 94 88 84 89 92 94 97 95 90 88 89 84 65 47 29 19 14 11 8 6 5 4 4 4 4 4 3 3 3 3 3 3 3
8 9 10 12 14 18 23 34 46 61 65 69 75 84 93 91 94 91 87 89 84 84 91 97 98 100 98 98 99 98 93 84 70 53 35 23 12 9 7 6 5 4 4 4 4 3 3 3 3 3 3 3 3 2
10 11 13 18 25 38 49 58 61 64 74 84 89 92 88 88 88 89 87 88 94 100 100 99 100 100 100 100 97 93 83 70 62 44 27 16 10 6 5 5 4 4 4 4 4 3 3 3 3 2 2 2 2 2
17 23 35 47 56 58 65 73 80 84 90 93 89 89 89 90 91 91 90 96 100 100 100 100 100 100 100 96 92 82 68 56 42 30 20 13 9 6 5 4 4 4 3 3 3 3 3 2 2 2 2 2 2 2
37 39 41 50 64 73 77 79 82 86 86 87 90 92 91 94 99 99 100 100 100 100 100 100 99 94 93 90 82 72 55 39 26 19 13 9 8 6 5 4 4 4 3 3 3 2 2 2 2 2 2 2 2 2
44 53 62 70 76 80 82 80 83 89 93 96 93 95 98 100 100 100 100 99 100 100 100 100 98 94 90 76 63 51 42 29 19 13 10 7 6 5 4 4 4 3 3 3 2 2 2 2 2 2 2 2 2 2
62 67 68 75 79 80 84 90 95 98 98 98 99 100 100 100 100 100 100 99 99 99 100 98 95 89 77 58 49 40 34 21 13 10 7 6 5 4 4 4 3 3 3 3 2 2 2 2 2 2 2 2 2 2
72 78 82 84 85 86 90 97 98 98 99 98 100 100 100 100 99 97 98 98 99 98 96 93 90 82 58 48 41 31 21 14 10 8 6 5 4 4 4 3 3 3 3 3 2 2 2 2 2 2 2 2 2 2
86 89 89 90 94 97 96 93 94 96 96 100 100 100 100 98 95 93 94 98 98 95 92 91 78 56 45 37 26 20 15 10 8 6 6 5 4 4 4 3 3 3 2 2 2 2 2 2 2 2 2 2 2 2
90 92 98 97 95 95 94 97 98 98 96 98 100 100 97 97 99 98 95 96 94 92 87 75 55 39 32 26 18 14 11 8 6 5 5 4 4 4 3 3 3 2 2 2 2 2 2 2 2 2 2 2 1 1
97 97 93 90 93 97 100 99 94 93 97 99 98 95 97 99 94 95 93 91 84 80 72 50 35 29 25 17 14 11 8 6 6 5 5 4 4 3 3 3 2 2 2 2 2 2 2 2 2 2 1 1 1 1

GFSWCAN_250_rhum_093.txt.gz
RH
23 25 25 24 23 24 25 24 23 24 25 24 22 19 25 24 18 19 22 16 12 11 12 11 9 10 12 12 14 17 19 22 24 28 29 27 27 30 31 32 35 33 49 68 52 56 93 89 56 60 99 100 100 100
21 23 24 23 24 25 27 25 24 25 25 24 21 20 29 28 17 19 20 24 16 12 12 12 12 11 10 11 14 17 19 19 21 23 23 23 25 28 31 33 32 33 54 68 52 60 74 82 63 48 91 100 100 100
19 21 22 24 25 26 27 26 25 25 24 23 20 19 31 29 20 19 24 23 25 14 15 14 12 12 12 12 16 16 17 17 17 18 17 20 25 26 30 35 32 33 39 44 42 47 56 63 69 41 57 100 100 100
15 17 18 21 23 25 26 25 25 24 22 22 19 18 30 28 23 21 26 22 28 24 17 16 14 13 14 13 12 12 13 14 14 16 15 20 24 26 30 35 33 32 27 25 32 40 50 52 64 66 50 67 97 98
9 11 14 16 19 23 23 24 23 22 21 19 18 21 26 23 23 24 25 29 24 30 28 16 14 15 12 11 11 12 13 13 14 14 16 19 20 22 27 32 31 27 22 22 26 37 48 51 54 77 87 48 62 89
7 8 9 12 17 20 21 21 20 20 17 15 17 22 22 20 25 30 30 32 26 24 29 22 13 13 12 13 14 13 13 12 12 13 14 12 15 17 22 24 23 20 21 22 24 28 36 44 47 57 84 74 66 69
6 7 8 11 14 17 19 18 18 16 14 16 19 21 18 17 20 28 33 14 24 25 30 28 19 11 12 11 11 11 12 12 11 10 9 10 11 13 16 17 14 14 18 19 24 25 23 26 30 40 50 60 56 57
6 7 8 10 14 17 17 15 14 14 16 16 13 11 9 10 13 21 24 13 34 31 27 24 12 14 14 14 11 10 10 10 9 9 10 11 11 11 12 12 13 14 15 15 16 21 22 24 24 24 28 36 47 46
6 7 8 12 16 16 13 13 16 14 11 8 7 6 7 9 12 17 11 16 28 26 21 13 17 18 15 14 12 10 11 12 10 11 11 10 11 12 11 13 16 16 16 16 15 16 22 26 28 27 26 31 40 57
6 8 12 14 14 13 15 15 10 8 6 6 6 6 7 8 8 9 10 17 18 14 16 19 20 16 14 13 12 12 11 12 12 12 12 12 12 12 11 11 12 13 15 15 15 17 20 22 26 31 35 34 30 35
8 12 13 14 14 18 12 8 6 6 5 5 6 6 8 9 13 15 15 14 14 18 22 22 17 16 15 14 13 13 14 14 14 13 12 11 10 10 10 12 13 12 13 14 14 15 18 20 20 21 23 26 28 29
11 12 13 18 19 11 7 6 6 6 7 7 7 8 8 8 9 9 10 14 18 21 19 18 18 17 17 16 15 14 13 13 12 14 13 11 11 13 14 15 16 17 17 18 19 19 19 19 20 20 20 21 22 24
11 12 20 18 10 8 8 9 9 10 10 9 9 9 10 11 11 15 20 19 16 17 18 17 16 16 15 15 16 19 18 18 18 20 26 27 21 20 19 18 17 17 16 16 16 16 16 16 16 17 18 18 17 17
12 20 15 9 9 10 10 9 10 11 10 9 8 8 10 13 15 16 14 15 17 18 18 18 18 17 19 22 22 24 23 24 28 28 24 22 22 22 20 20 18 18 17 17 17 17 16 16 15 15 14 14 14 14
18 13 9 9 10 12 12 12 12 13 12 11 14 17 20 19 17 18 19 20 21 22 22 21 23 26 27 30 31 32 30 30 26 26 31 34 34 33 33 33 32 31 29 27 25 23 22 21 20 20 19 19 18 17
11 8 9 10 12 15 15 14 16 20 23 22 19 19 18 19 20 21 23 25 26 27 29 34 36 38 36 37 37 37 40 40 46 46 51 52 50 50 49 47 44 40 38 35 33 30 28 26 24 23 21 18 16 16
8 8 9 10 15 19 20 26 28 26 22 20 20 18 18 22 23 29 35 44 47 47 44 46 49 50 51 56 62 55 55 56 52 50 49 47 49 52 56 60 56 53 47 46 39 32 23 18 14 11 9 8 8 7
8 8 10 15 20 21 22 24 28 29 28 25 22 26 30 35 44 53 53 44 50 54 50 52 50 47 47 46 49 52 55 67 87 94 98 95 89 85 76 68 61 56 51 43 33 27 22 16 12 10 10 9 9 9
8 9 14 18 22 25 27 34 37 36 37 34 32 39 46 51 56 52 53 60 55 49 50 55 58 54 57 72 88 92 94 96 96 89 81 75 70 61 51 49 49 44 37 31 25 19 15 11 9 8 7 6 6 6
10 12 14 19 26 31 36 38 45 48 53 58 59 68 76 72 67 62 45 41 45 51 54 58 79 94 98 98 98 90 88 93 98 90 84 76 64 45 34 26 23 19 15 14 12 10 9 7 6 6 5 4 4 4
12 18 22 26 34 40 46 61 71 76 81 86 76 62 50 38 38 46 51 52 57 73 84 97 99 100 100 90 81 76 72 81 81 74 70 66 54 44 29 21 14 11 10 9 8 7 6 5 4 4 3 3 3 2
12 19 23 31 41 44 45 57 64 74 67 52 44 38 38 51 54 57 69 82 95 99 100 100 98 91 89 88 88 86 89 88 83 80 74 64 50 34 23 14 10 8 6 5 4 4 3 3 3 3 3 3 3 3
11 18 20 21 29 40 50 59 50 43 36 34 37 51 50 61 76 89 96 97 97 98 98 94 90 87 88 90 93 94 91 94 89 80 66 57 41 29 20 11 7 6 5 5 4 4 4 4 3 3 3 3 3 3
12 12 17 23 32 41 41 38 31 29 40 51 53 64 77 88 98 98 94 90 92 91 91 92 94 98 97 96 96 97 95 92 87 83 73 56 40 28 16 8 5 5 4 4 4 3 3 3 3 3 3 3 2 2
14 17 22 29 34 31 23 29 39 50 59 66 76 86 96 99 94 89 91 90 90 90 96 99 100 99 100 100 100 99 93 89 87 77 57 39 27 17 10 6 5 5 4 4 3 3 3 3 3 2 2 2 2 2
14 21 25 23 18 25 39 56 62 74 80 89 98 98 93 88 88 89 90 91 95 99 100 100 99 100 100 100 100 97 93 80 69 57 38 23 16 10 6 5 5 4 4 3 3 3 3 3 2 2 2 2 2 2
11 13 15 20 38 52 61 64 71 82 89 96 96 94 88 86 89 93 99 100 100 100 100 100 100 100 98 96 92 85 74 66 56 42 27 18 12 8 6 5 4 4 3 3 3 3 3 2 2 2 2 2 2 2
20 30 38 49 56 62 72 81 88 95 94 89 84 80 83 91 97 100 100 99 100 100 100 100 99 95 95 92 86 73 62 52 42 27 18 13 9 7 6 5 4 4 3 3 3 2 2 2 2 2 2 2 2 2
46 56 57 63 69 77 86 92 95 92 85 81 82 88 96 100 100 98 98 99 100 100 100 100 98 94 90 84 77 63 52 37 30 20 13 10 8 6 5 4 4 4 3 3 3 2 2 2 2 2 2 2 2 2
56 61 66 74 82 88 90 88 81 84 82 82 89 96 98 98 100 100 100 99 99 99 99 98 96 91 85 78 68 52 36 28 19 13 9 8 6 5 4 4 4 3 3 3 2 2 2 2 2 2 2 2 2 1
77 82 86 87 87 87 86 84 83 83 85 95 99 100 100 100 100 99 99 98 99 99 98 96 86 78 76 70 56 36 24 20 13 9 7 6 5 4 4 4 3 3 3 2 2 2 2 2 2 2 2 2 2 1
82 85 86 85 86 86 86 88 87 89 95 98 98 100 100 100 100 99 96 95 91 94 91 85 82 77 69 58 42 27 20 14 10 7 6 6 5 4 4 3 3 3 2 2 2 2 2 2 2 2 2 2 2 2
84 83 80 78 82 84 85 86 87 90 93 96 95 94 96 97 99 98 96 90 88 89 87 78 68 61 53 42 26 20 15 10 8 6 6 5 5 4 4 3 3 2 2 2 2 2 2 2 2 2 2 2 2 2

GFSWCAN_250_rhum_096.txt.gz
RH
28 28 30 31 32 33 35 33 31 29 29 27 26 27 25 24 21 20 31 20 17 13 11 11 11 12 9 13 16 17 17 18 20 24 27 29 30 30 32 32 30 30 38 37 39 52 74 50 44 48 52 57 92 100
18 19 22 22 24 25 26 26 30 30 30 28 30 29 28 26 22 21 31 22 24 18 14 12 13 12 16 14 13 15 18 19 21 24 26 30 29 31 31 31 33 32 36 35 32 34 56 41 35 46 54 69 90 100
17 18 19 20 21 23 24 27 30 30 31 29 32 30 29 28 24 21 38 19 28 25 18 14 13 14 14 15 14 15 19 19 20 22 23 24 27 32 33 32 35 36 35 35 40 42 41 28 39 46 61 65 87 100
11 13 15 17 19 21 24 27 28 29 29 30 32 31 30 29 25 22 39 23 27 34 28 17 14 15 14 14 14 15 14 15 17 19 21 26 29 30 34 36 40 40 40 39 35 35 30 29 45 57 62 66 83 96
7 9 10 12 15 18 20 23 26 26 26 30 31 29 28 29 25 24 34 30 25 32 34 21 17 15 15 14 14 15 16 15 16 17 20 23 27 27 28 32 33 35 35 33 31 31 30 36 44 58 55 79 69 99
5 6 7 9 11 14 16 20 20 22 24 29 29 28 26 26 25 28 32 33 23 29 33 32 22 20 16 15 15 13 13 13 15 17 15 17 21 23 25 28 30 30 29 24 24 26 31 29 40 43 53 59 63 58
5 6 6 7 9 11 14 14 17 20 25 25 26 26 24 22 25 30 32 21 28 28 40 42 31 18 18 14 14 13 12 12 12 13 13 15 18 18 20 22 22 22 19 20 20 23 23 25 32 30 36 48 54 47
5 5 6 6 7 8 10 12 16 20 21 21 22 22 19 17 21 36 36 23 25 26 38 53 34 18 16 17 16 15 16 15 11 11 12 13 13 15 18 17 17 16 16 20 19 21 22 24 27 25 25 30 36 38
4 5 6 6 7 8 9 13 16 16 17 17 16 15 12 12 28 37 22 24 21 26 37 35 30 24 18 16 15 14 14 13 12 12 13 13 14 15 14 15 14 16 18 21 20 19 19 20 23 27 28 26 28 32
4 5 6 6 7 9 11 13 13 14 14 13 12 11 12 12 13 14 12 14 23 36 35 30 26 20 20 18 15 15 15 14 12 13 13 13 13 13 14 15 15 17 18 19 18 16 17 18 19 22 27 28 30 30
5 6 6 7 8 11 12 12 12 11 12 12 10 8 8 8 8 8 9 13 25 30 24 24 22 21 21 20 17 16 16 14 12 15 13 12 12 12 13 13 13 13 13 14 13 13 13 14 17 20 23 25 28 28
6 6 7 10 12 11 10 10 11 9 8 7 6 6 7 8 9 10 12 15 16 17 22 21 21 21 23 20 19 20 20 19 17 16 16 16 17 17 17 17 19 19 18 18 18 17 15 15 16 16 15 16 18 19
6 9 11 11 10 10 11 8 7 7 6 7 7 7 8 9 11 12 14 17 19 19 19 20 23 22 20 18 20 20 20 22 21 19 17 16 16 14 14 14 13 13 13 14 14 13 12 12 12 13 14 14 14 14
10 10 10 9 11 9 7 8 7 7 7 7 8 8 9 9 9 9 10 14 17 21 20 21 22 22 23 20 18 18 18 19 17 17 16 17 18 18 18 18 19 20 20 20 20 19 18 17 16 15 14 14 14 14
10 10 10 10 8 8 8 9 9 9 10 10 10 9 10 12 13 15 18 18 17 18 22 24 24 24 19 18 18 18 18 21 22 24 28 31 33 37 44 46 46 51 51 49 45 41 36 32 29 26 23 20 17 14
11 10 9 8 9 11 13 12 11 12 12 12 12 12 15 18 20 17 18 20 21 22 23 24 21 18 16 19 24 28 35 47 52 62 69 75 85 90 87 79 75 70 66 60 53 44 37 30 25 21 18 16 14 14
10 9 9 10 14 19 19 18 17 18 20 21 21 20 17 15 16 19 20 20 21 22 22 22 22 29 33 41 61 78 91 90 96 96 93 79 80 88 86 86 81 74 68 59 48 36 25 18 14 12 10 8 8 7
8 9 11 18 23 26 22 22 24 23 21 20 18 19 21 22 23 22 23 22 25 34 44 54 66 82 92 97 94 88 91 86 96 99 100 96 89 84 73 65 60 56 51 42 33 28 26 22 19 15 11 9 8 8
8 11 18 26 29 29 30 29 27 26 24 22 23 23 23 22 24 28 32 48 70 79 87 87 82 87 86 90 96 100 100 100 100 96 90 81 73 65 58 50 41 33 28 21 16 13 12 11 10 8 7 6 6 5
10 16 26 28 28 28 30 30 28 27 28 29 29 29 30 37 47 60 70 84 84 76 76 83 88 96 100 100 98 92 90 87 80 76 72 71 67 57 46 40 31 24 16 10 9 8 7 6 6 5 4 4 3 3
14 22 25 29 29 30 33 35 34 34 36 37 39 45 57 74 82 82 72 67 72 88 93 99 100 99 92 88 82 74 82 92 97 83 75 80 68 59 51 41 29 23 14 8 6 5 5 4 4 3 3 3 3 3
19 22 24 27 35 39 42 44 47 51 52 60 66 75 78 75 64 62 76 89 89 98 100 97 92 90 89 89 93 94 95 92 89 85 86 87 86 70 60 42 29 18 10 6 5 4 4 4 3 3 3 3 3 3
23 29 32 32 36 44 54 52 56 60 67 73 76 67 56 59 76 87 94 99 95 92 91 93 92 92 97 99 99 99 95 92 96 96 91 87 82 66 48 31 21 13 9 6 5 4 4 4 3 3 3 3 3 3
26 31 37 39 43 47 58 58 67 71 70 66 50 60 77 86 88 90 90 93 93 90 92 97 100 100 100 100 100 100 98 95 94 91 86 81 66 46 33 22 16 10 7 6 5 4 3 3 3 3 3 3 3 2
28 34 35 43 48 54 61 58 58 56 48 60 74 85 81 84 87 87 89 87 87 92 96 99 100 100 100 100 99 99 98 96 94 90 81 70 52 37 24 16 11 7 6 5 4 4 3 3 3 3 3 2 2 2
28 36 40 45 46 48 52 49 49 62 73 84 82 80 86 88 88 87 88 91 94 98 100 100 100 99 97 98 100 99 96 90 87 84 72 57 41 24 17 13 8 6 5 4 4 3 3 3 3 2 2 2 2 2
26 30 30 34 39 34 43 56 69 80 78 77 83 88 90 91 93 94 93 95 97 97 97 99 100 100 100 100 100 100 94 88 82 72 53 38 23 17 14 9 6 5 4 4 4 3 3 3 3 2 2 2 2 2
22 28 33 32 39 52 64 77 78 79 86 87 90 90 91 95 94 94 95 93 95 98 100 100 100 100 100 100 100 95 86 78 69 53 37 24 18 14 11 7 6 5 4 4 3 3 3 3 2 2 2 2 2 2
26 27 33 50 62 74 78 77 79 86 95 95 93 90 89 92 94 94 96 98 99 100 100 100 100 100 100 98 92 84 76 64 53 35 24 21 16 11 8 7 6 5 4 4 3 3 3 3 2 2 2 2 2 2
35 55 63 66 70 73 78 83 90 91 87 86 84 86 88 93 98 99 100 99 100 100 100 100 100 98 96 91 89 80 61 50 37 26 22 16 12 9 8 7 6 5 4 3 3 3 2 2 2 2 2 2 2 2
64 68 71 70 69 75 82 84 82 83 83 84 84 92 96 96 95 100 99 98 99 100 98 99 96 92 89 88 86 68 51 38 26 20 13 10 8 7 7 6 5 4 4 3 3 3 2 2 2 2 2 2 2 2
66 65 66 71 77 85 88 91 90 88 88 88 86 90 97 100 100 100 100 95 95 97 97 95 92 89 80 74 65 48 36 28 20 13 9 8 7 7 6 5 4 4 3 3 2 2 2 2 2 2 2 2 2 2
66 72 79 82 85 88 88 87 84 86 86 85 87 92 98 100 100 99 94 91 92 94 93 88 84 77 71 64 51 38 30 21 14 10 9 8 7 6 5 4 4 3 2 2 2 2 2 2 2 2 2 2 2 2

GFSWCAN_250_rhum_099.txt.gz
RH
51 52 58 55 45 41 43 44 43 40 38 34 32 32 31 32 30 28 24 27 19 26 21 16 12 12 11 14 13 12 14 18 21 23 28 34 33 30 31 32 32 33 32 31 36 44 49 45 49 52 53 54 54 69
28 31 32 32 34 33 33 32 33 33 32 31 32 30 31 33 32 30 28 26 24 26 20 20 13 13 13 11 14 12 13 15 19 24 26 28 29 26 29 32 34 38 35 34 34 36 34 32 37 45 52 52 46 62
18 20 21 22 24 25 26 27 28 28 30 32 32 31 33 35 34 31 30 24 28 33 18 23 15 15 14 13 12 14 14 16 17 19 23 28 28 29 31 34 40 38 35 33 33 36 35 36 42 46 47 52 53 56
16 17 18 18 19 21 22 24 26 28 29 31 31 32 34 37 35 33 31 28 28 39 23 22 21 17 16 14 15 18 17 17 18 18 20 24 27 29 34 36 37 35 36 33 32 36 33 32 34 37 36 39 48 47
11 12 13 14 15 16 17 19 22 23 26 27 31 31 34 36 35 35 29 31 26 34 28 23 27 17 16 16 16 15 15 17 18 19 21 22 23 27 31 33 33 34 35 34 31 32 34 32 29 29 31 36 40 40
7 8 9 10 11 12 13 16 18 20 23 26 27 30 33 34 35 37 30 27 27 35 37 28 28 20 15 17 17 16 16 16 16 16 18 20 21 23 26 29 30 32 35 34 32 32 33 32 29 27 29 31 28 44
5 5 6 7 8 9 11 12 15 17 19 21 25 28 28 32 33 35 30 25 28 33 44 39 26 24 17 17 17 16 19 19 18 17 16 18 19 22 24 25 27 27 28 27 26 24 25 27 25 24 24 30 27 37
5 5 5 6 6 7 8 10 13 14 17 20 23 23 24 26 32 35 27 21 26 31 58 55 28 26 25 24 19 16 17 18 17 18 16 18 18 20 21 21 22 20 22 21 22 22 22 24 26 26 24 27 24 23
4 5 5 5 6 6 7 8 10 13 16 18 17 17 18 28 38 29 21 21 19 34 72 58 38 32 29 25 23 18 16 15 15 16 18 17 16 16 16 18 18 18 20 20 24 24 23 24 24 28 29 30 30 29
4 4 4 5 6 6 7 8 9 11 12 12 13 16 29 29 23 18 17 16 17 35 78 53 42 33 32 28 24 20 19 17 15 16 16 17 17 16 16 17 18 19 20 20 22 21 21 20 20 21 24 26 28 30
4 4 4 5 5 6 7 7 8 9 10 13 19 21 20 16 16 12 13 21 28 30 58 44 41 32 25 24 24 22 23 19 18 19 16 14 15 17 16 16 16 16 16 16 16 15 14 13 13 14 15 15 17 22
4 5 5 5 6 6 7 8 9 12 14 12 11 11 10 13 12 10 13 14 15 18 29 32 34 37 27 30 30 26 23 20 20 19 19 19 20 19 18 17 17 17 17 17 16 17 16 15 13 12 13 14 14 15
5 5 5 6 6 7 8 9 10 10 10 10 11 10 10 9 10 11 10 10 11 13 21 29 35 31 29 26 25 23 23 21 20 19 19 20 20 19 18 18 18 18 17 17 19 21 21 20 19 16 14 13 13 14
5 5 6 6 6 8 8 8 10 10 8 8 8 8 7 8 8 8 9 10 13 17 27 33 33 26 26 22 21 20 21 21 20 21 21 20 22 23 23 23 24 25 26 26 25 23 22 21 18 17 15 14 12 12
5 5 5 7 8 8 9 8 7 7 6 6 6 7 7 9 10 12 15 18 22 27 28 23 26 22 20 19 23 23 23 26 25 25 27 30 32 32 33 35 38 38 36 36 34 31 29 25 21 17 14 11 10 9
5 7 8 9 9 8 8 8 9 9 9 9 10 10 12 17 16 22 20 21 22 23 22 22 19 20 25 25 24 24 28 35 43 44 50 62 72 72 69 70 74 73 67 60 53 47 41 34 26 18 14 12 11 9
8 10 9 8 8 9 10 10 11 12 11 11 12 14 17 15 17 19 19 18 18 19 19 22 24 28 31 36 47 62 68 62 73 79 92 99 97 92 90 89 86 78 73 68 61 54 46 38 31 27 25 19 13 10
10 8 8 9 11 12 12 11 11 12 13 14 16 15 18 22 18 16 18 17 19 23 25 29 39 52 66 75 84 83 90 98 99 95 92 96 96 90 82 77 70 60 52 45 40 34 28 18 13 12 12 11 9 7
8 10 13 16 18 18 20 21 22 21 21 22 21 20 19 18 18 19 21 23 24 28 44 60 76 90 91 95 96 95 95 97 99 100 95 88 83 80 69 58 50 40 32 24 21 15 11 9 9 8 7 6 5 4
9 14 19 20 23 26 25 26 23 23 21 18 18 18 20 22 24 25 34 46 54 66 80 92 96 99 100 96 97 99 97 89 87 87 88 83 78 66 56 52 46 38 27 22 17 12 7 6 6 5 4 4 4 3
16 20 23 26 26 24 25 24 23 22 22 23 24 26 29 33 43 52 65 85 94 96 94 100 100 100 92 88 88 92 91 93 93 88 79 70 64 69 71 66 55 36 30 23 13 7 6 5 4 4 4 3 3 3
20 22 26 27 27 27 26 26 26 27 30 37 41 44 55 64 73 85 91 95 96 99 100 100 93 90 95 94 90 94 92 89 89 88 81 82 94 92 78 60 44 34 22 13 8 5 5 5 4 4 4 3 3 3
24 26 28 30 28 28 28 27 32 39 52 60 64 71 79 86 92 93 98 99 99 98 93 89 94 93 89 91 93 95 98 98 98 93 94 93 88 77 56 42 32 22 15 11 7 6 5 5 4 4 3 3 3 3
24 28 31 32 35 39 39 47 55 61 70 78 80 86 89 88 90 93 90 96 92 88 90 89 88 89 90 94 99 100 100 100 100 99 94 90 79 57 45 30 21 18 14 11 7 6 5 4 4 3 3 3 3 2
27 30 34 38 43 50 60 62 64 69 74 76 80 89 83 85 84 87 85 86 89 89 88 89 92 97 99 100 100 100 100 100 99 98 91 78 59 45 28 25 21 17 12 8 6 5 5 4 3 3 3 3 3 2
34 38 41 47 52 56 62 69 74 69 72 79 90 91 88 88 89 86 85 93 93 89 92 98 100 100 100 100 100 100 100 100 97 92 78 60 47 36 27 22 16 12 9 6 5 5 4 4 3 3 3 2 2 2
36 42 41 48 49 52 60 60 65 69 83 88 88 88 90 93 89 90 97 96 91 95 100 99 100 100 100 100 100 100 99 95 88 77 66 52 43 30 22 17 12 9 7 6 5 4 4 3 3 3 2 2 2 2
36 39 42 48 51 53 52 63 74 87 88 86 86 88 90 90 91 93 92 91 95 99 100 100 100 100 100 100 99 95 94 88 77 68 58 47 36 24 17 13 10 8 6 5 5 4 3 3 3 2 2 2 2 2
31 37 40 46 46 51 66 77 83 82 82 86 91 94 93 86 84 86 89 91 92 95 100 100 100 100 100 97 94 91 89 82 77 67 52 38 26 18 13 11 9 7 6 5 4 4 3 3 3 2 2 2 2 2
32 30 38 45 51 68 84 86 82 86 87 89 87 86 86 88 90 90 91 91 92 95 99 100 98 98 97 96 93 90 82 72 65 53 39 29 21 14 12 10 8 7 6 5 4 4 3 3 2 2 2 2 2 2
29 39 47 57 74 83 84 82 82 82 83 87 90 90 91 94 96 98 98 97 95 91 91 97 97 95 92 90 90 86 74 64 54 41 31 22 15 11 9 8 7 6 5 4 4 3 2 2 2 2 2 2 2 2
44 52 65 75 77 79 79 76 75 81 88 91 91 95 100 100 100 100 98 92 88 91 94 94 95 93 87 83 83 74 66 55 42 32 23 16 11 9 8 7 6 5 4 4 3 3 3 3 3 3 3 2 2 2
56 68 76 78 78 78 77 79 85 91 94 96 98 94 94 99 96 93 91 90 93 94 94 92 91 86 82 81 74 65 51 41 31 22 16 11 9 8 7 6 5 4 4 3 3 3 3 3 3 2 2 2 2 2

GFSWCAN_250_rhum_102.txt.gz
RH
85 90 88 92 94 95 94 94 94 98 100 100 92 65 47 40 34 33 31 28 27 28 23 23 22 18 14 14 13 14 16 15 17 18 24 28 26 30 38 36 36 37 42 44 49 46 47 52 62 68 60 55 63 73
78 86 88 94 96 97 100 100 100 98 81 63 49 45 36 33 32 33 34 28 33 30 26 23 26 22 16 15 13 14 16 17 16 18 19 22 30 33 38 40 37 36 35 39 41 41 33 34 36 43 46 45 50 60
37 46 55 62 68 67 67 58 50 44 40 39 37 33 31 32 32 34 36 30 37 32 25 23 30 26 19 14 14 15 15 16 18 20 22 21 23 30 32 28 30 33 34 35 36 35 33 33 35 38 40 45 49 50
22 25 28 31 34 35 35 36 32 31 32 32 32 31 32 32 33 34 35 35 35 34 25 24 32 27 23 16 15 14 16 16 19 20 20 22 25 27 30 31 31 32 34 34 34 33 29 30 30 32 34 34 36 38
18 19 21 23 24 24 25 26 26 27 28 29 30 31 31 32 33 35 34 38 35 33 28 24 30 28 31 19 16 15 16 16 16 19 20 22 23 26 28 30 32 35 35 34 34 34 32 30 31 29 28 29 34 39
14 16 17 19 20 21 22 23 24 24 25 26 29 29 29 30 31 33 33 36 37 32 29 24 31 29 40 25 18 16 18 20 19 19 20 19 20 21 22 25 28 31 32 32 32 33 34 32 31 28 25 24 28 33
9 10 11 12 13 14 16 18 19 20 22 23 23 24 25 27 28 30 32 34 38 29 30 25 28 36 43 40 21 18 17 16 18 20 22 20 20 19 19 21 23 26 27 28 27 28 30 30 28 29 28 26 26 28
5 6 7 8 10 11 13 15 15 16 16 18 19 19 21 22 24 31 30 30 34 32 35 28 28 47 44 44 28 20 18 16 16 18 20 22 21 21 20 21 22 24 24 25 26 27 27 27 28 27 27 28 29 28
5 5 5 6 7 8 9 10 10 11 12 13 13 15 17 22 27 26 23 26 30 36 33 28 31 42 44 44 36 25 20 20 17 17 17 17 16 17 17 18 19 21 21 24 27 29 29 28 29 33 34 32 30 32
5 5 5 5 6 6 6 6 7 8 9 9 11 13 20 24 21 18 21 23 29 42 41 27 36 46 43 49 41 31 26 20 21 22 18 16 16 14 18 19 19 19 19 21 22 24 27 26 24 26 26 26 26 27
4 5 5 5 5 5 6 6 6 7 7 10 12 17 20 18 16 16 17 22 28 39 40 33 35 48 42 53 51 36 30 23 20 18 18 18 16 14 14 15 16 16 16 16 17 17 18 18 18 18 18 17 17 18
4 4 4 4 5 5 5 6 7 8 10 11 13 14 12 12 11 13 22 33 36 35 36 25 30 34 36 48 47 37 25 24 21 18 18 18 16 16 16 16 16 17 17 17 17 17 17 16 16 16 16 16 16 16
4 4 4 4 4 5 5 6 7 6 7 8 8 8 10 12 18 29 37 34 23 16 13 19 28 36 42 40 32 31 29 24 20 18 16 18 18 18 19 19 19 19 20 20 19 18 17 16 15 14 13 12 11 11
4 4 4 4 4 5 6 6 6 6 7 8 10 13 14 20 26 23 13 10 12 12 14 18 27 32 35 35 35 32 23 21 25 25 25 25 25 25 25 23 23 22 21 20 20 19 17 17 15 14 13 12 11 10
4 4 4 4 5 5 5 6 7 8 10 10 11 14 15 13 10 9 10 12 12 13 18 24 30 34 28 32 27 27 29 30 28 26 28 28 26 25 25 25 25 24 25 28 33 34 33 29 27 24 21 19 16 13
4 4 4 5 6 7 8 8 9 9 9 9 8 8 8 9 10 11 11 12 15 21 30 27 30 32 30 29 28 32 34 33 32 36 33 33 34 40 44 46 48 48 45 43 42 42 42 41 38 31 26 20 16 16
5 6 8 9 8 8 9 8 7 8 8 8 8 8 8 9 10 13 18 19 27 28 30 30 27 30 29 30 40 45 44 44 44 51 55 55 63 65 63 66 68 67 64 56 49 48 45 39 32 26 20 15 12 10
8 8 8 8 8 7 7 8 8 8 8 8 10 11 14 16 17 19 22 22 31 30 26 29 28 27 34 41 57 56 64 67 73 87 91 85 89 86 78 74 70 64 56 49 41 32 24 18 14 12 10 8 7 6
8 8 8 8 9 10 10 10 10 10 11 12 12 13 16 17 18 25 29 25 22 26 29 30 36 45 58 60 72 74 85 95 95 96 95 91 84 79 73 66 60 48 42 42 38 31 23 15 10 8 6 6 5 4
8 9 10 11 11 10 12 11 11 11 13 15 18 21 19 20 23 22 22 25 30 37 43 46 51 66 81 91 96 96 99 94 94 93 86 78 74 73 67 63 66 59 53 45 33 21 14 10 7 6 5 4 4 4
9 11 13 14 14 17 21 21 20 21 20 18 18 20 22 23 26 30 36 36 38 48 55 71 84 88 91 96 92 90 89 90 87 85 88 88 85 75 72 74 65 54 41 27 20 16 12 8 6 5 4 4 3 3
15 14 16 17 17 18 19 18 19 22 23 23 24 26 29 35 41 38 43 49 56 71 80 93 94 95 91 88 91 93 90 90 92 93 92 88 86 91 86 71 59 45 30 21 16 11 8 6 5 5 4 4 3 3
16 17 18 18 18 20 21 22 24 27 30 35 37 43 46 48 51 59 61 69 79 91 94 93 91 90 86 89 90 92 93 94 98 97 93 93 93 90 81 66 55 41 27 20 14 10 7 5 5 5 4 4 3 3
17 21 22 23 24 26 29 32 34 38 40 49 54 52 55 57 67 72 75 81 94 95 92 91 85 83 86 90 93 96 97 97 98 95 96 96 96 90 72 62 49 34 23 16 12 9 6 5 5 4 4 3 3 2
20 22 25 28 31 35 43 45 45 50 52 47 53 61 74 86 83 84 91 94 90 90 84 83 87 91 95 96 96 96 100 99 98 98 95 91 88 79 63 54 39 26 17 13 11 8 6 5 5 4 3 3 2 2
24 27 33 40 48 55 58 65 63 54 51 63 73 82 94 94 94 98 92 89 90 86 89 92 94 96 96 94 98 100 100 97 96 95 89 85 81 68 55 41 27 18 14 11 9 6 5 5 4 3 3 2 2 2
32 39 46 59 59 63 65 61 56 56 68 76 80 87 91 95 91 87 89 96 96 96 95 95 93 92 94 99 100 99 95 92 92 88 84 80 66 54 44 30 20 15 11 9 7 6 5 4 4 3 3 2 2 2
45 54 60 60 65 60 52 50 54 67 75 81 88 92 91 89 87 91 98 96 96 95 92 92 93 95 96 100 98 96 93 91 88 83 80 68 56 45 30 22 16 11 9 8 6 5 4 4 3 3 2 2 2 2
52 54 56 60 54 43 46 51 63 76 88 89 89 93 95 95 95 97 92 89 87 86 90 94 99 100 100 97 95 94 93 90 86 84 72 60 46 33 24 17 12 9 8 7 6 5 4 4 3 3 2 2 2 2
51 55 51 42 39 44 49 70 82 91 88 90 92 90 90 90 92 92 89 88 90 91 94 95 100 99 95 94 96 92 87 83 78 72 62 49 37 25 19 13 10 8 7 6 5 4 4 4 3 3 3 3 3 2
45 45 32 33 42 48 69 80 85 85 86 90 91 93 93 92 92 91 91 91 89 90 90 94 94 92 93 93 90 84 81 76 73 64 50 41 30 19 12 9 8 7 6 5 4 4 4 3 3 3 3 3 2 2
30 25 30 40 49 66 81 82 85 87 89 90 91 92 92 94 96 98 96 93 92 93 93 91 91 91 90 84 81 79 79 80 69 54 42 34 20 13 10 8 7 6 5 5 4 4 3 3 3 3 3 2 2 2
21 29 39 51 64 74 80 87 90 89 88 91 93 91 92 94 96 99 98 96 94 95 93 91 89 90 88 83 82 83 77 66 52 42 34 22 14 10 8 7 6 5 5 4 4 3 3 3 3 3 2 2 2 2

GFSWCAN_250_rhum_105.txt.gz
RH
87 96 100 100 100 100 100 100 99 99 97 99 100 100 98 95 91 81 81 64 46 35 30 24 25 21 18 23 18 15 15 15 16 16 22 24 26 22 24 26 33 36 37 37 40 70 97 95 99 100 100 100 99 95
84 91 96 100 100 100 100 100 100 100 100 100 100 100 99 90 82 88 78 49 39 36 31 26 26 24 20 20 19 16 17 16 17 17 18 24 29 26 25 28 33 37 36 35 36 40 44 61 84 90 95 97 97 96
79 89 91 93 100 100 100 100 100 100 100 100 95 94 95 98 92 70 52 37 36 37 32 28 27 25 22 24 19 15 16 16 14 17 20 22 27 31 30 29 32 36 42 41 36 36 38 40 43 50 58 63 68 74
65 71 79 85 91 97 100 100 100 100 100 100 100 99 96 78 58 42 36 34 35 39 33 30 29 26 24 25 20 15 16 15 15 14 16 20 24 27 32 28 32 34 38 38 36 33 33 36 39 44 47 47 43 43
34 45 58 70 77 82 88 92 90 91 89 86 70 61 51 46 37 32 35 35 35 40 36 32 29 28 27 30 25 16 16 16 16 16 15 16 17 18 19 22 25 26 24 28 30 32 32 32 34 35 36 34 34 34
21 26 32 36 43 47 50 54 51 51 50 46 43 36 31 31 31 32 37 35 34 39 37 31 32 30 30 33 29 19 16 16 16 18 18 17 16 16 17 18 19 21 24 27 29 32 32 32 34 32 30 30 31 31
18 20 22 24 26 27 28 31 31 31 32 31 29 29 29 29 29 32 33 33 38 38 36 33 34 31 31 35 31 22 18 18 18 17 17 18 19 19 19 21 23 25 26 26 28 30 30 30 28 28 29 29 28 27
14 16 18 20 22 24 24 25 26 27 27 25 25 26 26 25 28 31 31 30 34 35 36 35 33 31 29 34 31 28 18 18 18 18 18 17 18 18 22 23 22 23 25 27 28 28 28 29 28 28 30 31 30 29
10 12 13 15 16 17 19 19 20 21 21 21 22 22 22 24 28 28 26 27 32 35 38 35 31 28 32 39 33 34 23 20 20 20 20 20 18 16 16 18 19 20 20 21 23 24 26 28 29 29 29 29 31 32
6 7 7 9 10 12 14 15 15 16 16 17 18 18 21 25 25 23 24 26 35 41 38 33 28 29 38 49 44 38 31 26 21 20 18 17 16 17 19 18 17 18 18 20 21 22 24 25 26 26 27 30 30 28
6 6 6 6 6 7 8 9 10 11 12 14 15 18 20 19 19 17 23 31 39 43 30 28 28 31 36 52 50 40 38 33 27 19 17 17 15 14 15 17 16 16 16 16 18 20 21 22 22 23 22 23 24 24
5 6 6 6 6 6 6 7 7 9 10 11 13 13 13 12 12 18 27 35 40 40 26 20 25 29 33 56 47 43 37 32 23 24 24 19 18 18 17 17 17 17 18 18 18 18 18 19 20 20 20 18 17 17
5 5 5 5 5 6 6 6 6 7 8 8 8 8 8 11 17 25 34 41 32 17 12 21 29 35 53 58 48 40 43 36 32 27 24 23 22 22 21 20 18 18 18 18 18 17 17 17 17 17 16 15 15 14
4 4 4 5 5 5 6 6 6 6 6 6 7 8 11 21 28 31 28 22 17 13 21 30 34 36 45 46 47 48 41 35 33 29 27 25 23 23 20 19 20 20 22 22 22 21 20 19 19 19 19 18 16 15
4 4 4 4 4 4 5 5 6 6 6 7 8 13 20 22 20 15 13 13 15 18 26 22 24 34 42 49 46 38 41 33 29 28 27 26 23 27 29 29 30 31 33 34 33 32 31 32 30 28 24 22 19 17
4 4 4 4 4 5 5 6 6 6 7 8 13 16 14 13 11 13 17 21 20 13 14 19 28 40 42 42 43 38 32 29 30 32 34 36 38 44 48 47 50 56 56 55 52 48 44 41 39 35 31 28 25 20
4 4 4 4 5 5 5 6 6 7 9 10 10 11 10 10 14 15 14 11 12 15 19 27 37 42 37 36 31 30 31 36 46 52 60 65 64 70 64 65 70 68 61 57 55 53 50 44 38 30 24 18 13 11
4 5 5 6 6 6 7 8 9 10 11 10 12 13 12 11 11 10 11 14 17 30 34 32 35 32 25 26 30 42 59 66 76 76 81 74 74 78 76 78 76 68 62 55 48 41 36 31 24 17 13 10 8 7
5 5 5 6 7 8 9 9 8 8 8 8 8 8 8 9 10 12 15 24 33 27 27 29 25 26 29 42 56 70 82 82 76 82 87 84 85 80 74 72 70 64 55 51 47 40 31 25 19 14 9 6 5 5
6 6 7 7 6 6 6 6 7 8 8 8 9 10 12 15 19 25 29 24 23 28 26 26 33 40 55 76 86 86 87 85 88 88 86 88 92 84 80 76 70 66 66 60 53 43 30 22 16 11 7 6 5 5
6 6 7 8 8 8 9 9 9 10 11 14 15 16 20 20 21 21 22 23 24 28 36 44 51 72 82 83 85 83 85 84 90 97 96 90 84 83 80 80 81 80 78 73 60 42 27 20 16 11 8 6 5 5
8 9 10 10 10 11 12 13 14 13 14 16 18 19 20 19 19 21 25 31 38 51 61 64 75 82 87 88 85 86 89 92 96 93 88 88 91 92 92 90 87 84 74 63 51 35 23 17 11 8 6 5 4 4
13 12 12 13 14 16 16 17 18 17 17 16 16 18 19 22 28 32 46 62 67 73 73 78 85 88 85 86 90 88 87 90 93 94 96 97 91 90 90 88 84 76 68 53 39 26 17 12 8 7 5 4 4 3
17 20 20 18 18 19 19 18 17 17 17 18 21 24 29 37 44 58 70 72 76 78 90 90 87 84 87 86 86 92 93 94 97 98 97 93 93 93 88 86 78 66 54 39 27 18 13 9 7 6 5 4 4 3
17 18 18 18 19 19 18 18 19 21 22 28 37 46 58 68 69 68 65 73 83 86 88 88 86 83 85 90 90 90 93 97 97 99 95 94 94 91 88 78 64 54 40 28 19 13 10 8 6 5 4 4 3 3
18 19 19 21 23 25 29 34 36 40 46 52 60 67 64 62 65 80 85 89 91 93 90 84 85 88 91 92 100 100 100 98 98 97 94 92 92 88 84 71 57 45 30 19 13 10 9 7 6 5 4 4 3 2
22 23 27 34 40 45 52 52 59 62 62 57 55 59 65 79 89 92 93 94 94 86 85 87 87 89 93 97 100 100 100 99 100 97 92 91 90 80 72 62 49 33 22 14 11 9 8 6 5 4 4 3 3 2
27 33 41 46 49 51 53 55 59 56 56 57 64 76 85 92 93 93 94 91 89 89 87 89 92 95 98 100 100 100 100 100 98 92 88 87 80 72 64 54 40 27 17 12 9 8 6 5 4 4 3 3 2 2
38 44 46 53 57 59 57 52 46 48 57 74 85 93 95 94 90 92 92 91 91 92 88 89 94 97 100 100 100 100 99 96 89 88 85 84 81 77 61 46 31 20 14 10 8 6 5 5 4 4 3 3 2 2
47 54 58 58 60 59 53 50 51 62 80 93 99 96 92 86 87 90 90 90 89 90 94 96 98 100 100 100 98 94 90 86 85 84 84 87 84 67 51 34 25 16 10 8 7 6 5 4 4 3 3 3 3 3
55 58 54 52 55 45 43 58 74 86 94 98 96 88 85 86 88 86 86 90 94 96 98 99 100 100 99 94 91 91 90 86 83 81 81 74 64 50 37 27 19 12 8 6 6 5 4 4 3 3 2 2 3 2
49 48 45 45 41 36 46 64 80 86 89 90 89 89 91 90 88 90 97 96 98 99 100 100 100 100 96 93 90 89 86 85 83 83 73 62 51 40 29 22 14 10 7 6 5 4 4 3 3 2 2 2 2 2
36 35 32 32 30 39 58 70 75 78 84 87 90 91 89 90 91 94 96 96 97 98 98 100 100 100 96 91 88 87 86 85 83 74 63 53 42 31 23 15 10 7 6 5 4 4 3 3 2 2 2 2 2 2

GFSWCAN_250_rhum_111.txt.gz
RH
100 100 100 100 100 100 100 100 100 100 100 100 100 100 100 100 100 93 90 86 74 85 82 79 67 70 71 56 33 29 28 24 21 21 23 16 17 19 34 38 50 68 99 98 96 96 96 90 95 88 96 99 97 94
81 99 100 100 100 100 100 100 100 100 100 100 100 100 100 100 100 100 85 84 90 77 83 69 77 70 69 47 32 28 29 27 22 21 24 18 18 17 23 30 36 48 54 90 99 98 89 94 96 89 91 92 93 91
76 89 100 100 100 100 100 100 100 100 100 100 100 100 88 94 92 80 85 88 88 74 74 87 75 76 55 46 30 27 29 28 23 20 25 18 14 20 20 23 34 38 38 50 62 68 85 99 100 98 99 94 96 99
61 80 99 100 100 100 100 100 100 100 100 100 99 99 100 93 87 85 91 95 88 82 82 84 78 64 56 39 29 26 28 26 23 21 22 21 16 18 21 21 22 29 35 36 37 48 58 66 83 100 99 95 95 96
37 70 90 87 88 92 96 100 100 100 96 98 99 97 94 87 85 99 93 92 84 83 83 79 71 63 51 36 29 27 27 26 24 22 22 19 17 15 16 22 20 22 27 29 32 34 38 42 49 63 83 100 100 100
30 42 63 86 85 80 88 94 92 98 100 96 96 99 99 94 100 94 91 88 87 94 85 72 57 56 41 33 28 27 25 25 23 22 24 20 18 18 17 17 21 21 20 24 27 29 31 34 36 41 49 61 85 93
25 39 51 64 82 81 89 97 100 99 96 99 96 94 93 96 95 94 93 94 96 89 79 66 57 43 36 30 27 27 26 26 22 22 22 17 15 17 17 17 19 20 21 20 20 20 22 23 27 28 29 32 33 35
21 25 35 52 65 73 78 86 92 96 96 91 96 96 96 100 96 95 96 94 88 72 74 60 42 38 32 29 28 30 28 24 21 23 22 17 16 16 15 15 16 18 21 23 22 21 20 18 18 17 18 20 26 30
15 19 22 24 43 65 71 73 81 88 90 94 95 94 100 99 94 88 85 76 63 71 61 45 37 36 30 29 31 30 28 24 24 28 24 18 17 17 18 19 18 20 20 21 22 23 20 20 21 22 23 23 24 27
12 15 19 21 22 26 45 65 68 69 74 78 84 93 100 81 70 66 60 59 56 60 47 33 32 31 30 30 30 30 30 25 30 32 28 20 17 16 16 15 16 18 20 20 21 23 23 25 25 25 25 26 28 29
11 13 16 19 23 29 29 27 30 34 41 50 55 59 60 54 52 46 44 46 57 48 38 31 30 31 29 31 30 33 30 29 44 38 30 20 21 19 20 22 23 22 22 22 23 23 21 21 21 20 20 21 22 23
10 12 14 16 19 22 26 30 39 39 37 41 44 44 41 32 32 34 41 48 49 47 32 27 28 29 31 34 35 32 30 39 51 38 33 28 25 22 19 19 19 19 20 20 20 21 22 22 22 22 21 21 21 20
9 11 13 15 17 19 21 22 26 27 29 30 28 28 29 28 29 37 44 48 52 26 21 27 31 32 34 33 37 31 33 49 51 46 40 32 28 26 26 27 26 25 24 23 22 22 21 21 21 22 22 22 21 21
8 10 11 13 16 17 17 18 20 23 23 22 23 22 22 25 32 44 46 45 28 18 21 30 33 28 30 35 30 32 40 52 56 48 40 39 33 30 28 27 25 25 27 28 28 29 30 29 30 32 32 32 32 32
6 7 8 10 12 13 15 16 17 18 17 17 17 19 25 26 33 35 40 24 12 17 27 33 28 26 29 28 31 37 43 62 57 45 45 36 34 32 34 33 32 36 40 46 56 61 60 60 61 57 52 50 48 44
5 6 6 7 8 8 10 12 12 13 14 15 16 19 20 24 26 24 17 12 12 18 29 26 23 25 28 31 37 42 56 63 58 44 37 37 37 44 49 52 64 68 71 76 73 70 71 70 65 59 53 48 43 37
6 6 6 7 7 8 8 8 8 9 10 11 11 13 14 15 13 11 9 8 15 24 23 21 21 28 30 34 42 50 63 63 48 45 43 44 56 66 85 83 86 83 76 77 77 76 73 66 60 59 60 54 47 35
5 6 7 7 7 7 7 7 8 8 9 9 9 10 8 8 7 7 9 16 18 19 20 18 24 26 28 34 46 60 65 51 48 52 59 78 94 93 94 88 81 82 77 81 82 79 77 76 79 79 68 60 49 31
5 5 6 6 6 6 7 7 7 6 6 6 6 5 5 6 9 12 18 17 15 17 19 22 24 23 29 38 49 55 49 47 56 74 97 95 97 93 88 85 80 88 91 89 88 86 87 89 87 84 82 70 50 32
4 4 5 5 5 5 5 5 5 6 6 6 6 6 7 9 11 13 14 14 18 21 21 17 17 28 42 48 49 43 48 57 92 96 100 99 90 91 86 84 86 92 94 93 93 91 90 86 82 68 53 36 24 16
4 4 5 4 4 5 4 5 5 5 6 6 8 9 10 12 13 12 15 18 15 12 13 18 32 48 49 38 42 48 75 90 100 100 97 88 91 88 83 85 88 93 98 97 95 94 92 89 82 69 51 34 20 15
5 5 5 5 5 5 6 6 6 6 6 6 8 10 11 12 14 15 13 11 13 20 27 38 40 34 40 48 61 84 91 94 93 88 87 88 84 84 88 94 98 98 98 98 95 91 86 76 66 51 36 24 17 11
4 5 5 5 6 7 7 7 7 7 8 9 10 12 12 12 12 10 12 18 28 36 35 27 32 42 52 76 86 92 90 86 87 89 90 90 89 95 99 99 99 99 96 98 91 86 80 69 59 45 31 20 13 9
6 6 7 7 8 8 8 10 9 9 9 8 8 9 10 11 12 15 26 30 28 23 24 39 49 71 88 92 91 87 87 88 92 94 96 98 100 100 99 98 98 98 96 88 83 80 70 65 58 41 26 15 10 7
7 7 7 7 8 8 8 8 8 8 8 9 10 12 14 20 25 26 24 21 22 32 48 66 77 82 88 90 88 89 90 96 100 100 100 99 99 99 100 97 96 97 92 82 80 79 71 65 46 30 19 13 8 7
9 9 9 9 10 10 12 13 13 14 15 18 20 21 21 24 24 23 23 30 43 66 75 80 87 89 88 88 91 97 99 99 100 99 96 97 100 100 100 98 97 93 85 80 77 74 66 56 36 24 15 10 7 6
12 13 13 14 15 16 18 18 18 18 19 21 21 20 21 22 26 35 49 63 73 79 85 90 90 85 86 89 96 100 100 97 98 100 100 100 100 100 100 98 91 85 81 79 74 64 56 44 30 18 10 8 7 6
15 16 15 16 16 18 18 19 19 20 20 20 21 23 31 38 49 57 70 78 83 85 87 86 83 87 92 96 98 99 99 99 100 100 100 100 100 100 98 94 90 88 82 76 64 52 43 30 20 11 7 6 5 4
14 15 16 16 18 19 19 19 20 19 20 24 32 41 48 56 66 76 80 85 89 92 88 87 92 93 95 97 98 98 100 100 100 100 100 100 99 98 97 95 88 86 79 65 53 42 31 22 15 9 7 6 4 4
17 17 18 19 21 24 27 27 29 29 40 50 52 56 65 72 77 85 88 89 90 89 92 95 93 92 94 98 100 100 100 100 100 100 100 100 100 100 98 89 85 76 64 54 46 35 24 16 11 7 6 4 4 3
19 22 23 26 30 36 46 49 51 51 54 55 61 71 78 82 84 87 88 88 91 92 89 88 92 97 99 100 99 100 100 100 100 100 99 100 98 96 89 83 76 66 58 48 39 27 18 11 7 6 5 4 4 3
21 23 27 32 36 40 47 50 49 50 53 58 66 74 78 81 84 85 85 87 88 85 86 91 96 97 97 98 98 100 100 100 98 97 97 98 96 91 84 80 68 57 48 41 29 20 12 8 6 5 4 4 3 3
23 24 27 33 39 42 45 49 47 51 59 67 74 77 78 78 78 81 83 83 84 85 88 92 93 94 95 94 93 95 98 98 96 94 96 98 93 84 80 69 59 48 40 30 19 12 8 6 5 4 4 3 3 3

GFSWCAN_250_rhum_114.txt.gz
RH
47 76 100 100 100 100 100 100 100 100 100 100 100 100 100 100 100 100 100 100 100 91 96 95 78 67 85 72 58 60 63 34 23 21 22 22 25 21 26 27 47 45 50 66 71 77 74 69 87 100 98 100 100 100
33 67 99 99 100 100 100 100 100 100 100 100 100 100 100 100 100 100 100 100 100 100 94 89 75 84 86 72 58 64 51 28 25 21 23 24 22 28 26 32 34 49 51 71 82 82 87 86 86 99 100 100 100 100
25 55 78 96 100 100 100 100 100 100 100 100 100 100 100 100 100 100 99 99 99 90 89 85 90 83 75 65 60 58 38 27 27 24 22 26 23 27 26 24 29 41 51 53 66 65 62 68 79 87 95 93 98 98
21 40 67 84 98 100 100 100 100 100 100 100 100 100 100 100 100 100 100 97 86 82 88 91 84 81 75 63 65 47 30 26 26 25 21 23 24 23 25 24 26 34 39 40 48 66 78 76 72 74 84 86 88 87
20 36 57 78 99 100 100 100 100 100 100 100 100 100 100 100 99 94 94 95 87 91 89 84 78 85 71 64 54 39 28 25 26 25 22 20 21 23 24 21 24 24 28 37 49 47 51 59 67 78 86 90 90 91
20 28 43 68 89 100 100 100 100 100 100 100 100 100 100 100 100 99 100 97 94 93 87 88 85 78 68 67 50 34 27 25 25 24 22 20 17 20 21 17 18 20 22 26 31 34 43 48 48 48 45 56 69 73
17 22 36 54 76 96 100 100 100 100 100 100 100 97 98 93 100 95 95 85 91 93 96 88 82 75 72 56 39 31 27 26 25 25 22 19 18 20 20 15 16 18 20 22 24 29 32 33 38 48 52 50 53 58
13 19 28 41 64 92 100 100 98 100 100 100 100 96 99 97 98 87 95 97 99 99 91 86 79 77 55 44 35 29 27 26 26 27 23 20 21 20 17 16 16 17 18 20 20 21 25 26 26 29 27 27 26 28
12 16 22 29 45 71 83 89 93 96 99 100 100 100 92 89 94 98 96 100 100 96 92 83 77 64 45 39 33 30 28 28 28 27 24 26 24 19 16 14 14 16 17 17 19 20 20 20 23 26 29 30 28 28
13 17 21 26 36 50 69 81 87 89 97 99 96 96 94 92 99 97 96 100 100 98 82 79 73 48 42 37 32 31 30 30 30 27 28 31 27 19 18 17 17 17 17 17 17 18 20 20 21 23 23 22 21 22
14 16 19 24 28 35 44 61 76 86 92 92 93 97 86 87 84 82 91 98 100 91 88 70 44 46 40 37 34 34 32 33 34 23 32 39 29 19 19 17 16 18 19 19 18 20 22 22 22 23 22 22 22 23
14 17 18 21 24 29 37 47 58 67 70 76 75 64 63 66 64 71 88 100 99 87 53 39 44 42 38 38 35 32 34 34 30 29 44 43 30 22 20 20 20 20 21 21 22 23 23 24 24 25 25 25 24 22
10 13 16 20 23 26 30 36 39 44 52 58 57 57 54 56 71 79 79 82 61 40 44 45 39 41 36 36 33 31 35 34 31 39 48 44 37 30 25 22 22 21 22 23 25 29 29 27 25 25 25 24 24 24
9 12 15 17 20 21 23 26 27 29 32 34 39 43 38 41 48 55 61 65 43 39 37 38 40 39 35 35 32 31 35 32 34 51 55 48 37 34 31 28 29 30 29 28 26 27 32 37 40 44 46 44 42 40
9 10 12 13 15 17 19 20 22 21 19 21 22 22 25 40 52 58 59 42 38 34 34 36 34 30 32 30 31 36 34 33 46 66 56 45 37 32 32 32 32 36 44 52 60 64 65 65 65 68 68 61 55 50
7 9 10 11 12 14 15 17 19 19 20 22 24 32 32 34 38 41 39 33 26 26 26 29 29 25 29 31 36 37 32 43 65 68 55 41 35 36 38 52 63 72 78 79 75 72 75 80 76 66 64 65 61 56
6 7 8 10 11 13 14 16 18 18 21 24 26 27 28 29 31 31 31 26 19 19 24 25 23 25 29 32 34 30 39 56 71 57 44 43 43 46 74 81 85 87 82 83 86 80 74 72 75 73 71 68 64 62
5 6 7 8 9 11 12 14 14 17 20 21 21 24 25 23 22 21 16 14 10 16 21 20 21 26 29 30 30 37 44 68 72 42 45 51 61 84 85 92 90 92 93 81 76 78 79 81 81 78 78 77 75 73
5 6 6 7 8 8 9 10 13 15 16 15 14 15 16 13 13 12 10 9 12 21 18 18 25 25 23 27 34 45 60 76 54 46 58 78 82 91 96 95 96 87 80 84 89 88 87 86 85 82 87 84 77 72
6 6 6 6 6 6 8 8 8 8 8 8 7 8 8 7 7 7 10 14 17 16 17 20 18 20 26 32 36 53 70 57 47 57 82 88 94 96 97 97 88 85 89 88 88 92 91 92 90 87 82 75 74 64
5 6 6 7 7 7 6 6 6 6 6 6 7 7 7 8 10 12 12 11 13 17 16 14 21 24 27 36 49 64 54 47 58 81 89 98 96 94 96 93 88 87 88 89 92 94 93 94 90 87 80 78 70 50
4 5 5 5 6 6 6 6 7 7 6 6 7 7 8 8 9 9 10 14 14 12 14 21 19 23 38 48 54 49 46 64 73 90 97 99 97 98 93 91 90 92 96 93 92 98 96 91 89 84 79 76 59 39
5 5 5 5 5 6 6 6 6 7 7 7 7 7 7 7 9 12 13 12 12 14 16 16 24 39 45 41 40 49 66 81 94 97 100 98 98 94 94 94 96 96 95 96 96 95 91 92 88 81 74 60 41 30
4 4 5 5 6 6 6 6 6 6 6 7 7 8 9 11 11 11 11 11 12 15 20 31 40 40 33 38 58 76 87 95 100 100 99 98 99 97 96 98 100 98 93 94 98 96 93 90 83 77 66 46 30 23
6 7 7 7 7 6 7 8 10 10 10 10 10 10 10 10 10 11 11 15 22 25 32 34 30 31 48 69 81 91 96 98 98 95 96 96 96 100 100 95 93 96 96 99 99 95 87 79 72 68 50 34 24 15
8 8 8 8 8 9 8 8 8 8 9 10 10 9 10 10 12 15 22 24 25 28 26 32 44 60 71 82 89 92 93 95 94 97 98 99 97 92 89 88 96 98 100 100 96 91 81 75 68 55 38 27 18 11
7 8 8 7 7 7 7 7 7 8 8 9 10 11 13 16 22 25 24 25 24 29 42 53 59 70 78 86 95 94 89 92 94 94 96 94 95 92 90 94 99 100 100 98 92 84 75 68 58 46 33 23 15 10
9 10 10 10 10 9 10 11 11 11 11 12 14 17 19 19 20 22 22 28 37 48 50 61 74 84 95 95 86 89 95 100 99 97 94 96 99 97 98 99 99 96 96 93 87 76 66 57 47 34 26 17 11 7
13 13 13 14 14 14 13 13 14 16 16 17 17 16 16 17 19 23 36 44 50 59 71 81 88 88 82 83 91 95 97 96 92 89 94 100 99 97 97 95 94 97 93 87 78 64 54 45 34 25 17 10 7 5
15 15 15 15 15 15 15 15 16 17 18 18 19 21 25 33 39 44 54 62 69 75 80 83 82 82 87 95 98 96 92 90 92 96 99 98 94 90 89 93 94 91 84 78 67 56 48 41 28 20 12 8 5 4
13 13 14 14 15 16 17 18 21 23 25 29 35 38 42 51 58 63 68 73 76 78 80 82 88 95 97 93 88 93 97 99 98 96 95 92 88 86 88 91 89 83 78 70 59 50 44 30 21 12 8 6 5 4
13 15 17 17 19 21 25 28 35 40 42 40 40 47 62 67 70 75 75 76 78 83 83 85 91 93 92 92 93 97 97 96 96 93 88 84 83 83 86 87 82 77 70 60 48 42 30 20 13 8 6 5 4 4
17 17 19 22 26 32 38 43 45 47 46 48 59 69 72 72 73 74 74 75 76 78 84 88 87 86 88 92 92 93 94 92 89 84 81 81 81 82 82 79 73 68 59 48 41 31 20 13 9 6 5 4 4 4